Denison, IA

10:34 PM CDT on May 20, 2018 (GMT -0500)
Denison Municipal

Weather History for KDNS - November, 2012

Change the Weather History Date:

Thursday, November 8, 2012

  Actual Average Record
Temperature  
Mean Temperature 50 °F -  
Max Temperature 62 °F 49 °F 82 °F (1999)
Min Temperature 37 °F 31 °F 17 °F (2017)
Degree Days  
Heating Degree Days 16    
Moisture  
Dew Point 34 °F    
Average Humidity 64    
Maximum Humidity 87    
Minimum Humidity 36    
Precipitation  
Precipitation 0.00 in - - ()
Sea Level Pressure  
Sea Level Pressure 29.93 in    
Wind  
Wind Speed 11 mph (South)    
Max Wind Speed 21 mph    
Max Gust Speed 29 mph    
Visibility 10 miles    
Events      
Averages and records for this station are not official NWS values.
T = Trace of Precipitation, MM = Missing Value Source: NWS Daily Summary

Daily Weather History Graph

Daily Weather History Graph

Search for Another Location

Airport or City:

Astronomy

Nov. 08, 2012 Rise Set
Actual Time 7:03 AM CST 5:06 PM CST
Civil Twilight 6:33 AM CST 5:36 PM CST
Nautical Twilight 6:00 AM CST 6:09 PM CST
Astronomical Twilight 5:27 AM CST 6:42 PM CST
Moon 12:54 AM CST (11/8) 1:53 PM CST (11/8)
Length of Visible Light 11h 02m
Length of Day
10h 03m
Waning Crescent, 32% of the Moon is Illuminated
Nov 8
Waning Crescent
Nov 13
New
Nov 20
First Quarter
Nov 28
Full
Dec 6
Last Quarter

Hourly Weather History & Observations

Time (CST) Temp. Windchill Dew Point Humidity Pressure Visibility Wind Dir Wind Speed Gust Speed Precip Events Conditions
12:15 AM 37.4 °F 29.3 °F 32.0 °F 81% 30.03 in 10.0 mi SSE 12.7 mph - N/A   Clear
12:35 AM 37.4 °F 28.9 °F 32.0 °F 81% 30.02 in 10.0 mi SSE 13.8 mph 20.7 mph N/A   Clear
12:55 AM 39.2 °F 30.8 °F 32.0 °F 75% 30.01 in 10.0 mi SSE 15.0 mph 21.9 mph N/A   Clear
1:15 AM 39.2 °F 31.2 °F 32.0 °F 75% 30.01 in 10.0 mi SSE 13.8 mph 19.6 mph N/A   Clear
1:35 AM 39.2 °F 31.6 °F 32.0 °F 75% 30.00 in 10.0 mi SSE 12.7 mph 19.6 mph N/A   Clear
1:55 AM 37.4 °F 30.3 °F 32.0 °F 81% 30.01 in 10.0 mi SSE 10.4 mph 17.3 mph N/A   Clear
2:15 AM 37.4 °F 30.3 °F 32.0 °F 81% 30.00 in 10.0 mi SSE 10.4 mph 16.1 mph N/A   Clear
2:35 AM 37.4 °F 30.8 °F 32.0 °F 81% 30.00 in 10.0 mi SSE 9.2 mph 15.0 mph N/A   Clear
2:55 AM 37.4 °F 32.1 °F 32.0 °F 81% 30.00 in 10.0 mi Variable 6.9 mph 17.3 mph N/A   Clear
3:15 AM 37.4 °F 31.4 °F 32.0 °F 81% 30.00 in 10.0 mi South 8.1 mph - N/A   Clear
3:35 AM 37.4 °F 31.4 °F 32.0 °F 81% 29.99 in 10.0 mi South 8.1 mph - N/A   Clear
3:55 AM 37.4 °F 31.4 °F 32.0 °F 81% 29.98 in 10.0 mi SSE 8.1 mph 15.0 mph N/A   Clear
4:15 AM 37.4 °F 29.8 °F 32.0 °F 81% 29.98 in 10.0 mi SSE 11.5 mph - N/A   Clear
4:35 AM 37.4 °F 30.3 °F 32.0 °F 81% 29.97 in 10.0 mi SSE 10.4 mph 19.6 mph N/A   Clear
4:55 AM 37.4 °F 29.3 °F 32.0 °F 81% 29.97 in 10.0 mi South 12.7 mph - N/A   Partly Cloudy
5:15 AM 37.4 °F 29.8 °F 32.0 °F 81% 29.97 in 10.0 mi South 11.5 mph - N/A   Partly Cloudy
5:35 AM 37.4 °F 29.8 °F 32.0 °F 81% 29.97 in 10.0 mi South 11.5 mph - N/A   Partly Cloudy
5:55 AM 37.4 °F 29.8 °F 32.0 °F 81% 29.96 in 10.0 mi South 11.5 mph - N/A   Partly Cloudy
6:15 AM 37.4 °F 28.5 °F 32.0 °F 81% 29.96 in 10.0 mi SSE 15.0 mph - N/A   Scattered Clouds
6:35 AM 39.2 °F 30.5 °F 32.0 °F 75% 29.95 in 10.0 mi South 16.1 mph - N/A   Mostly Cloudy
6:55 AM 37.4 °F 28.2 °F 32.0 °F 81% 29.95 in 10.0 mi South 16.1 mph 24.2 mph N/A   Partly Cloudy
7:15 AM 39.2 °F 30.8 °F 32.0 °F 75% 29.95 in 10.0 mi South 15.0 mph 21.9 mph N/A   Clear
7:35 AM 39.2 °F 32.5 °F 32.0 °F 75% 29.96 in 10.0 mi South 10.4 mph 20.7 mph N/A   Clear
7:55 AM 39.2 °F 33.0 °F 32.0 °F 75% 29.96 in 10.0 mi South 9.2 mph 15.0 mph N/A   Clear
8:15 AM 41.0 °F 34.7 °F 33.8 °F 76% 29.97 in 10.0 mi South 10.4 mph 17.3 mph N/A   Clear
8:35 AM 42.8 °F 35.8 °F 33.8 °F 70% 29.96 in 10.0 mi SSW 13.8 mph - N/A   Clear
8:55 AM 44.6 °F 38.8 °F 33.8 °F 66% 29.96 in 10.0 mi South 11.5 mph 18.4 mph N/A   Clear
9:15 AM 46.4 °F 40.7 °F 33.8 °F 62% 29.96 in 10.0 mi South 12.7 mph - N/A   Clear
9:35 AM 48.2 °F - 33.8 °F 58% 29.97 in 10.0 mi SSW 11.5 mph 26.5 mph N/A   Clear
9:55 AM 50.0 °F - 33.8 °F 54% 29.95 in 10.0 mi South 18.4 mph 28.8 mph N/A   Clear
10:15 AM 51.8 °F - 33.8 °F 50% 29.95 in 10.0 mi SSW 17.3 mph 26.5 mph N/A   Clear
10:35 AM 53.6 °F - 33.8 °F 47% 29.94 in 10.0 mi SSW 20.7 mph - N/A   Clear
10:55 AM 53.6 °F - 33.8 °F 47% 29.94 in 10.0 mi SSW 18.4 mph 26.5 mph N/A   Clear
11:15 AM 55.4 °F - 33.8 °F 44% 29.94 in 9.0 mi SSW 11.5 mph 21.9 mph N/A   Clear
11:35 AM 57.2 °F - 35.6 °F 44% 29.93 in 10.0 mi South 12.7 mph 19.6 mph N/A   Clear
11:55 AM 59.0 °F - 35.6 °F 42% 29.91 in 10.0 mi South 17.3 mph 23.0 mph N/A   Clear
12:15 PM 60.8 °F - 33.8 °F 36% 29.90 in 10.0 mi SSW 18.4 mph 28.8 mph N/A   Clear
12:35 PM 60.8 °F - 33.8 °F 36% 29.89 in 10.0 mi SSW 17.3 mph 26.5 mph N/A   Clear
12:55 PM 62.6 °F - 35.6 °F 37% 29.88 in 10.0 mi SSW 13.8 mph 21.9 mph N/A   Clear
1:15 PM 60.8 °F - 33.8 °F 36% 29.88 in 10.0 mi SSW 15.0 mph 23.0 mph N/A   Clear
1:35 PM 60.8 °F - 33.8 °F 36% 29.88 in 10.0 mi SSW 16.1 mph - N/A   Clear
1:55 PM 62.6 °F - 35.6 °F 37% 29.88 in 10.0 mi SSW 13.8 mph - N/A   Clear
2:15 PM 62.6 °F - 35.6 °F 37% 29.87 in 10.0 mi SSW 8.1 mph 16.1 mph N/A   Clear
2:35 PM 62.6 °F - 35.6 °F 37% 29.87 in 10.0 mi SW 10.4 mph - N/A   Clear
2:55 PM 62.6 °F - 35.6 °F 37% 29.87 in 10.0 mi SSW 8.1 mph 15.0 mph N/A   Clear
3:15 PM 62.6 °F - 35.6 °F 37% 29.87 in 9.0 mi SW 8.1 mph 15.0 mph N/A   Clear
3:35 PM 62.6 °F - 35.6 °F 37% 29.88 in 10.0 mi SSW 8.1 mph 15.0 mph N/A   Clear
3:55 PM 62.6 °F - 35.6 °F 37% 29.88 in 10.0 mi SW 9.2 mph 15.0 mph N/A   Clear
4:15 PM 60.8 °F - 35.6 °F 39% 29.88 in 7.0 mi SSW 8.1 mph - N/A   Clear
4:35 PM 60.8 °F - 35.6 °F 39% 29.88 in 10.0 mi Variable 3.5 mph - N/A   Clear
4:55 PM 59.0 °F - 35.6 °F 42% 29.88 in 9.0 mi South 3.5 mph - N/A   Clear
5:15 PM 57.2 °F - 35.6 °F 44% 29.89 in 10.0 mi Calm Calm - N/A   Clear
5:35 PM 53.6 °F - 35.6 °F 51% 29.89 in 10.0 mi Calm Calm - N/A   Scattered Clouds
5:55 PM 50.0 °F - 35.6 °F 58% 29.90 in 10.0 mi ESE 5.8 mph - N/A   Mostly Cloudy
6:15 PM 46.4 °F 41.9 °F 35.6 °F 66% 29.90 in 10.0 mi SE 9.2 mph - N/A   Partly Cloudy
6:35 PM 48.2 °F - 35.6 °F 62% 29.91 in 10.0 mi SE 6.9 mph - N/A   Clear
6:55 PM 48.2 °F - 35.6 °F 62% 29.91 in 10.0 mi ESE 6.9 mph - N/A   Clear
7:15 PM 50.0 °F - 35.6 °F 58% 29.90 in 10.0 mi ESE 6.9 mph - N/A   Clear
7:35 PM 46.4 °F - 35.6 °F 66% 29.90 in 10.0 mi Calm Calm - N/A   Scattered Clouds
7:55 PM 44.6 °F 41.4 °F 35.6 °F 71% 29.91 in 10.0 mi North 5.8 mph - N/A   Scattered Clouds
8:15 PM 42.8 °F - 35.6 °F 76% 29.91 in 10.0 mi Calm Calm - N/A   Mostly Cloudy
8:35 PM 46.4 °F - 35.6 °F 66% 29.91 in 10.0 mi Calm Calm - N/A   Mostly Cloudy
8:55 PM 42.8 °F - 35.6 °F 76% 29.91 in 10.0 mi Calm Calm - N/A   Mostly Cloudy
9:15 PM 41.0 °F 38.0 °F 35.6 °F 81% 29.91 in 10.0 mi ENE 4.6 mph - N/A   Mostly Cloudy
9:35 PM 41.0 °F - 35.6 °F 81% 29.91 in 10.0 mi Calm Calm - N/A   Scattered Clouds
9:55 PM 41.0 °F 39.0 °F 35.6 °F 81% 29.90 in 10.0 mi NE 3.5 mph - N/A   Partly Cloudy
10:15 PM 41.0 °F 38.0 °F 35.6 °F 81% 29.90 in 10.0 mi NNE 4.6 mph - N/A   Partly Cloudy
10:35 PM 41.0 °F 38.0 °F 35.6 °F 81% 29.90 in 10.0 mi NNE 4.6 mph - N/A   Partly Cloudy
10:55 PM 39.2 °F 35.0 °F 35.6 °F 87% 29.90 in 10.0 mi NE 5.8 mph - N/A   Partly Cloudy
11:15 PM 39.2 °F 35.9 °F 35.6 °F 87% 29.89 in 10.0 mi NNE 4.6 mph - N/A   Clear
11:35 PM 39.2 °F - 33.8 °F 81% 29.89 in 10.0 mi Calm Calm - N/A   Clear
11:55 PM 39.2 °F - 33.8 °F 81% 29.89 in 10.0 mi Calm Calm - N/A   Clear